Powrót do katalogu

STARLINK-5630

AktywnyŁącznośćVLEO
NORAD 55406·PAYLOAD·🇺🇸 United States

Wystrzelony Jan 31, 2023 z Vandenberg Space Force Base

Loading…

Następne Przeloty (najbliższe 24 godziny)

TLE

ŚwieżeSource: CelesTrak SupGP

Epoka: Sep 14, 2026, 20:42 UTC

1 55406C 23014R   26257.86298611 -.00019205  00000+0 -16097-2 0  2573
2 55406  69.9998 307.6242 0003765 269.2501 258.6421 14.98333625    15

Śledź STARLINK-5630 w czasie rzeczywistym z AllMySat

Download on the App Store